Location: Austin
(30.3000°N, 97.7500°W)
Time: 06:33:54
(UTC-05:00)

ADEOS II - Pass Details

Date: 16 June 2025
Orbit: 794 x 796 km, 98.7° (Epoch: 08 July)

Event Time Altitude Azimuth Distance (km) Brightness Sun altitude
Rises 03:47:13 0° 17° (NNE) 3,296 6.4 -27.3°
Reaches altitude 10° 03:49:35 10° 21° (NNE) 2,364 5.5 -27.0°
Maximum altitude 03:54:44 61° 102° (ESE) 894 2.3 -26.3°
Enters shadow 03:55:29 55° 139° (SE) 947 2.3 -26.2°
